Lynden Pindling International Airport
MYNN : now visible

Airfield :











YOU CAN JOIN US ON...

 
LOGIN :

Register | Disclaimer

   EN    FR    IT 

 









Legend :    VFR   Marginal VFR   IFR   Intensive IFR   Very Intensive IFR
Visi :
Ceiling :
>= 8 km
>= 3000ft
5 to 8 km
1000 to 3000 ft
1500m to 5 km
500 to 1000 ft
800 to 1500m
200 to 500 ft
< 800m
< 200 ft
Symbols :   Thunderstorms  Fog  Heavy snow  Heavy precipitations  Wind > 20 kt






- Airport Elevation : 16 ft
- IATA code : NAS


MYNN - Lynden Pindling International

CURRENT METAR :
  • 231600Z 05011KT 9999 SCT018TCU 28/22 A3001

EXPIRED METARs :
  • 231500Z 04011KT 010V090 9999 SCT018TCU 29/22 A3001
  • 231400Z 03011KT 360V060 9999 BKN025 28/23 A3002
  • 231300Z 04008KT 010V070 9999 BKN025 28/22 A3001
  • 231200Z 07004KT 310V120 9999 BKN025 28/23 A2999

TAF MYNN
Valid from the 23 at 12:00 until the 24 at 12:00 UTC


231100Z 2312/2412 07008KT 9999 SCT025
MYNA FIR / North America



MET'MAP, your aeronautical weather chart ! - Copyright ORBIFLY December 2007 - Disclaimer

ORBIFLY MET'MAP TEAM :

Programming & Development : Alexandra Zaïnal
Original concept : Baudouin d'Aumeries
Technical & hardware support : Manuel Goepfert
Assistance : Marc-Olivier Méhu




SOURCES & CREDITS :

   NOAA       Earth
Advisory